GW3416 Weather Reports


time (UTC)temp
C
wind
direction
speed
KPH
gust
KPH
rain 1hr
cm
rain 24hr
cm
rain mn
cm
humidity
%
barometer
mb
20260506034540 21 29 3.2 9.7 0.00 0.08 0.08 76 1026.6
20260506033540 20 59 1.6 4.8 0.00 0.08 0.08 79 1026.6
20260506032519 20 35 1.6 3.2 0.00 0.08 0.08 79 1026.6
20260506031517 19 24 3.2 8.0 0.00 0.08 0.08 80 1026.6
20260506030517 19 16 3.2 9.7 0.00 0.08 0.08 79 1026.7
20260506025520 19 13 3.2 8.0 0.00 0.08 0.08 79 1026.7
20260506024520 20 18 3.2 8.0 0.00 0.08 0.08 78 1026.8
20260506023520 20 22 1.6 6.4 0.00 0.08 0.08 77 1026.8
20260506022517 20 353 4.8 8.0 0.00 0.08 0.08 77 1026.8
20260506021518 20 8 1.6 8.0 0.00 0.08 0.08 80 1026.8
20260506020521 20 359 3.2 8.0 0.00 0.08 0.08 78 1026.8
20260506015538 20 29 1.6 4.8 0.00 0.08 0.08 80 1026.9
20260506014537 20 14 3.2 8.0 0.00 0.08 0.08 83 1027.0
20260506013518 20 21 1.6 6.4 0.00 0.08 0.08 86 1027.0
20260506012518 19 24 1.6 8.0 0.00 0.08 0.08 89 1027.1
20260506011518 18 278 1.6 6.4 0.00 0.05 0.05 90 1027.2
20260506010519 17 24 1.6 4.8 0.00 0.05 0.05 90 1027.3
20260506005519 18 355 3.2 11.3 0.00 0.05 0.05 90 1027.4
20260506004518 18 3 1.6 4.8 0.00 0.05 0.05 91 1027.5
20260506003519 17 4 1.6 4.8 0.00 0.05 0.05 91 1027.6
20260506002519 17 359 1.6 8.0 0.00 0.05 0.05 90 1027.8
20260506001519 17 341 3.2 9.7 0.00 0.05 0.05 89 1028.0
20260506000600 18 311 3.2 8.0 0.00 0.05 0.05 86 1028.2
20260505235519 18 341 3.2 8.0 0.00 0.05 0.05 85 1028.2
20260505234559 18 54 0.0 3.2 0.00 0.05 0.05 86 1028.2
20260505233519 18 137 0.0 3.2 0.00 0.05 0.05 86 1028.3
20260505232519 18 118 0.0 1.6 0.00 0.05 0.05 87 1028.3
20260505231520 18 132 0.0 3.2 0.05 0.05 0.05 89 1028.4
20260505230519 18 151 0.0 3.2 0.05 0.05 0.05 90 1028.5
20260505225519 18 126 0.0 3.2 0.05 0.05 0.05 91 1028.6
20260505224517 18 160 0.0 1.6 0.05 0.05 0.05 91 1028.8
20260505223519 17 0 0.0 3.2 0.05 0.05 0.05 91 1028.9
20260505222520 17 140 1.6 4.8 0.05 0.05 0.05 91 1028.9
20260505221521 18 147 0.0 3.2 0.00 0.00 0.00 92 1028.9
20260505220518 17 251 0.0 3.2 0.00 0.00 0.00 94 1029.0
20260505215517 17 67 0.0 3.2 0.00 0.00 0.00 94 1029.0
20260505214527 17 302 0.0 1.6 0.00 0.00 0.00 95 1029.2
20260505213526 17 145 0.0 3.2 0.00 0.00 0.00 95 1029.2
20260505212527 16 240 0.0 1.6 0.00 0.00 0.00 95 1029.3
20260505211526 16 0.0 0.0 0.00 0.00 0.00 95 1029.3
20260505210527 16 0.0 0.0 0.00 0.00 0.00 95 1029.3
20260505205527 15 0.0 0.0 0.00 0.00 0.00 95 1029.2
20260505204547 15 0.0 0.0 0.00 0.00 0.00 95 1029.2
20260505203527 15 225 0.0 1.6 0.00 0.00 0.00 95 1029.2
20260505202527 14 195 0.0 1.6 0.00 0.00 0.00 95 1029.1
20260505201548 14 223 0.0 3.2 0.00 0.00 0.00 95 1029.0
20260505200528 13 261 0.0 1.6 0.00 0.00 0.00 95 1028.9
20260505195549 13 0.0 0.0 0.00 0.00 0.00 94 1028.7
20260505194548 13 243 0.0 1.6 0.00 0.00 0.00 94 1028.7
20260505193548 13 0.0 0.0 0.00 0.00 0.00 94 1028.7
20260505192528 13 0.0 0.0 0.00 0.00 0.00 94 1028.7
20260505191548 13 0.0 0.0 0.00 0.00 0.00 94 1028.7
20260505190528 13 0.0 0.0 0.00 0.00 0.00 94 1028.6
20260505185549 13 0.0 0.0 0.00 0.00 0.00 94 1028.6
20260505184529 13 0.0 0.0 0.00 0.00 0.00 94 1028.5
20260505183529 -17 0.0 0.0 0.00 0.00 0.00
20260505182529 13 0.0 0.0 0.00 0.00 0.00 94 1028.5
20260505181529 13 0.0 0.0 0.00 0.00 0.00 94 1028.4
20260505180529 13 0.0 0.0 0.00 0.00 0.00 94 1028.3
20260505175529 13 0.0 0.0 0.00 0.00 0.00 94 1028.4
20260505174529 13 0.0 0.0 0.00 0.00 0.00 94 1028.4
20260505173529 13 171 0.0 1.6 0.00 0.00 0.00 94 1028.4
20260505172531 13 181 0.0 1.6 0.00 0.00 0.00 94 1028.4
20260505171529 13 0.0 0.0 0.00 0.00 0.00 94 1028.5
20260505170611 13 0.0 0.0 0.00 0.00 0.00 94 1028.5
20260505165530 13 0.0 0.0 0.00 0.00 0.00 93 1028.5
20260505164529 13 0.0 0.0 0.00 0.00 0.00 93 1028.5
20260505163530 12 0.0 0.0 0.00 0.00 0.00 93 1028.6
20260505162530 12 0.0 0.0 0.00 0.00 0.00 93 1028.6
20260505161531 12 0.0 0.0 0.00 0.00 0.00 93 1028.6
20260505160531 12 0.0 0.0 0.00 0.00 0.00 93 1028.6
20260505152531 12 0.0 0.0 0.00 0.00 0.00 93 1028.7
20260505151531 13 152 0.0 0.0 0.00 0.00 0.00 93 1028.8
20260505150531 13 0.0 0.0 0.00 0.00 0.00 93 1028.9
20260505140520 13 221 0.0 1.6 0.00 0.00 0.00 93 1029.4
20260505124518 13 0.0 0.0 0.00 0.00 0.00 93 1030.0
20260505123522 13 0.0 0.0 0.00 0.00 0.00 93 1030.0
20260505122521 13 176 0.0 1.6 0.00 0.00 0.00 93 1030.0
20260505121518 13 186 0.0 0.0 0.00 0.00 0.00 92 1030.1
20260505120518 13 170 0.0 1.6 0.00 0.00 0.00 92 1030.1
20260505115519 13 175 0.0 1.6 0.00 0.00 0.00 92 1030.1
20260505114559 13 194 0.0 1.6 0.00 0.00 0.00 92 1030.1
20260505113519 13 165 0.0 1.6 0.00 0.00 0.00 92 1030.1
20260505112540 13 0.0 0.0 0.00 0.00 0.00 92 1030.1
20260505111520 13 182 0.0 1.6 0.00 0.00 0.00 93 1030.1
20260505110519 13 164 0.0 1.6 0.00 0.00 0.00 93 1030.2
20260505101520 12 170 0.0 1.6 0.00 0.00 0.00 93 1030.6
20260505100519 12 184 0.0 3.2 0.00 0.00 0.00 92 1030.6
20260505095519 12 0.0 0.0 0.00 0.00 0.00 92 1030.5
20260505094517 12 192 0.0 1.6 0.00 0.00 0.00 92 1030.5
20260505093518 12 168 0.0 1.6 0.00 0.00 0.00 92 1030.5
20260505092517 12 0.0 0.0 0.00 0.00 0.00 92 1030.5
20260505091523 13 158 0.0 0.0 0.00 0.00 0.00 92 1030.5
20260505090519 13 0.0 0.0 0.00 0.00 0.00 91 1030.4
20260505085538 13 161 0.0 1.6 0.00 0.00 0.00 91 1030.4
20260505084539 13 177 0.0 1.6 0.00 0.00 0.00 91 1030.4
20260505083520 13 177 0.0 3.2 0.00 0.00 0.00 90 1030.4
20260505082520 13 158 0.0 1.6 0.00 0.00 0.00 90 1030.4
20260505081518 14 179 0.0 1.6 0.00 0.00 0.00 90 1030.3
20260505080539 14 175 0.0 1.6 0.00 0.00 0.00 90 1030.3
20260505075520 14 179 0.0 3.2 0.00 0.00 0.00 89 1030.4
20260505074518 14 185 0.0 1.6 0.00 0.00 0.00 88 1030.4
20260505073522 15 222 0.0 3.2 0.00 0.00 0.00 88 1030.2
20260505072519 15 201 0.0 1.6 0.00 0.00 0.00 88 1030.2
20260505071520 15 170 0.0 1.6 0.00 0.00 0.00 87 1030.2
20260505070520 15 178 0.0 1.6 0.00 0.00 0.00 87 1030.1
20260505065520 15 194 0.0 3.2 0.00 0.00 0.00 86 1030.0
20260505064520 16 175 0.0 1.6 0.00 0.00 0.00 86 1030.0
20260505063559 16 195 0.0 1.6 0.00 0.00 0.00 85 1030.0
20260505062521 16 187 0.0 1.6 0.00 0.00 0.00 85 1030.0
20260505061540 16 213 0.0 1.6 0.00 0.00 0.00 84 1029.9
20260505060519 16 196 0.0 1.6 0.00 0.00 0.00 84 1029.8
20260505055538 16 209 0.0 3.2 0.00 0.00 0.00 83 1029.9
20260505054517 17 19 1.6 4.8 0.00 0.00 0.00 82 1029.9
20260505053517 17 12 1.6 4.8 0.00 0.00 0.00 81 1029.9
20260505052517 17 38 1.6 3.2 0.00 0.00 0.00 81 1029.8
20260505051517 17 68 1.6 3.2 0.00 0.00 0.00 80 1029.9
20260505050522 17 131 0.0 3.2 0.00 0.00 0.00 80 1030.1
20260505041541 18 74 1.6 4.8 0.00 0.00 0.00 79 1030.2
20260505040523 18 78 1.6 6.4 0.00 0.00 0.00 79 1030.1
20260505035518 19 28 0.0 3.2 0.00 0.00 0.00 79 1030.1